Weather History for Buffalo, MN

Change the Weather History Date:

Sunday, March 3, 2013

  Actual Average (KSTC) Record (KSTC)
Temperature  
Mean Temperature 25 °F 24 °F  
Max Temperature 32 °F 33 °F 61 °F (1905)
Min Temperature 18 °F 14 °F -19 °F (2014)
Degree Days  
Heating Degree Days 40 42  
Month to date heating degree days 126  
Since 1 July heating degree days 6572  
Cooling Degree Days 0 0  
Month to date cooling degree days 0  
Year to date cooling degree days 0  
Moisture  
Dew Point 12 °F    
Average Humidity 57    
Maximum Humidity 75    
Minimum Humidity 37    
Precipitation  
Precipitation 0.00 in 0.04 in 0.86 in (1966)
Month to date precipitation 0.11  
Year to date precipitation 1.35  
Snow  
Snow 0.00 in 0.30 in 8.70 in (1985)
Month to date snowfall 1.0  
Since 1 July snowfall 35.2  
Snow Depth -    
Sea Level Pressure  
Sea Level Pressure 30.04 in    
Wind  
Wind Speed 5 mph (East)    
Max Wind Speed 12 mph    
Max Gust Speed 18 mph    
Visibility 10 miles    
Events      
T = Trace of Precipitation, MM = Missing Value Source: NWS Daily Summary

Daily Weather History Graph

Daily Weather History Graph

Search for Another Location

Airport:

Trip Planner

Search our weather history database for the weather conditions in past years. The results will help you decide how hot, cold, wet, or windy it might be!

Date:

Astronomy

Mar. 03, 2013 Rise Set
Actual Time 6:49 AM CST 6:05 PM CST
Civil Twilight 6:19 AM CST 6:35 PM CST
Nautical Twilight 5:45 AM CST 7:09 PM CST
Astronomical Twilight 5:11 AM CST 7:43 PM CST
Moon 12:02 AM CST (3/3) 9:46 AM CST (3/3)
Length of Visible Light 12h 15m
Length of Day
11h 16m
Waning Gibbous, 63% of the Moon is Illuminated
Mar 3
Waning Gibbous
Mar 4
Last Quarter
Mar 11
New
Mar 19
First Quarter
Mar 27
Full

Hourly Weather History & Observations

Time (CST) Temp. Windchill Dew Point Humidity Pressure Visibility Wind Dir Wind Speed Gust Speed Precip Events Conditions
12:14 AM 21.9 °F - 15.1 °F 75% 30.14 in 10.0 mi Calm Calm - N/A   Overcast
12:35 AM 22.1 °F 17.4 °F 13.5 °F 69% 30.14 in 10.0 mi ESE 3.5 mph - N/A   Overcast
12:54 AM 22.1 °F - 13.1 °F 68% 30.13 in 10.0 mi Calm Calm - N/A   Overcast
1:14 AM 21.9 °F - 13.1 °F 69% 30.13 in 10.0 mi Calm Calm - N/A   Overcast
1:35 AM 21.9 °F 15.7 °F 12.9 °F 68% 30.13 in 10.0 mi East 4.6 mph - N/A   Overcast
1:54 AM 21.2 °F - 12.7 °F 70% 30.13 in 10.0 mi Calm Calm - N/A   Overcast
2:14 AM 21.6 °F - 12.9 °F 69% 30.13 in 10.0 mi Calm Calm - N/A   Overcast
2:35 AM 21.4 °F - 13.1 °F 70% 30.12 in 10.0 mi Calm Calm - N/A   Overcast
3:14 AM 20.7 °F 15.8 °F 13.1 °F 73% 30.11 in 10.0 mi East 3.5 mph - N/A   Overcast
3:34 AM 20.7 °F 15.8 °F 12.7 °F 71% 30.11 in 10.0 mi East 3.5 mph - N/A   Overcast
3:54 AM 20.7 °F - 11.8 °F 69% 30.10 in 10.0 mi Calm Calm - N/A   Overcast
4:15 AM 20.3 °F 15.4 °F 12.2 °F 71% 30.09 in 10.0 mi ESE 3.5 mph - N/A   Overcast
4:34 AM 20.3 °F 13.8 °F 12.2 °F 71% 30.09 in 10.0 mi East 4.6 mph - N/A   Overcast
4:54 AM 20.3 °F 15.4 °F 11.3 °F 68% 30.09 in 10.0 mi East 3.5 mph - N/A   Overcast
5:15 AM 20.1 °F 13.6 °F 10.4 °F 66% 30.09 in 10.0 mi East 4.6 mph - N/A   Mostly Cloudy
5:34 AM 19.4 °F 11.5 °F 10.2 °F 68% 30.09 in 10.0 mi East 5.8 mph - N/A   Mostly Cloudy
6:15 AM 19.4 °F 11.5 °F 10.0 °F 67% 30.09 in 10.0 mi East 5.8 mph - N/A   Overcast
6:34 AM 19.2 °F 12.5 °F 9.7 °F 66% 30.10 in 10.0 mi East 4.6 mph - N/A   Overcast
6:54 AM 19.0 °F 13.9 °F 10.6 °F 70% 30.10 in 10.0 mi East 3.5 mph - N/A   Overcast
7:15 AM 19.2 °F 12.5 °F 10.8 °F 70% 30.10 in 10.0 mi East 4.6 mph - N/A   Overcast
7:35 AM 19.2 °F 12.5 °F 10.4 °F 69% 30.10 in 10.0 mi East 4.6 mph - N/A   Mostly Cloudy
7:54 AM 18.5 °F 11.7 °F 9.9 °F 69% 30.10 in 10.0 mi East 4.6 mph - N/A   Scattered Clouds
8:15 AM 19.9 °F 12.1 °F 10.8 °F 68% 30.10 in 10.0 mi East 5.8 mph - N/A   Mostly Cloudy
8:34 AM 21.2 °F 13.6 °F 11.1 °F 65% 30.09 in 10.0 mi East 5.8 mph - N/A   Mostly Cloudy
8:54 AM 22.6 °F 14.3 °F 11.3 °F 62% 30.09 in 10.0 mi East 6.9 mph - N/A   Scattered Clouds
9:15 AM 23.7 °F 15.6 °F 11.7 °F 60% 30.09 in 10.0 mi ESE 6.9 mph - N/A   Scattered Clouds
9:34 AM 24.8 °F 16.1 °F 12.2 °F 59% 30.08 in 10.0 mi East 8.1 mph - N/A   Mostly Cloudy
9:54 AM 25.3 °F 16.0 °F 12.2 °F 58% 30.08 in 10.0 mi East 9.2 mph - N/A   Overcast
10:15 AM 26.2 °F 17.1 °F 11.8 °F 55% 30.07 in 10.0 mi East 9.2 mph - N/A   Overcast
10:34 AM 27.5 °F 19.3 °F 12.0 °F 52% 30.07 in 10.0 mi East 8.1 mph - N/A   Overcast
10:54 AM 28.6 °F 18.7 °F 11.7 °F 49% 30.06 in 10.0 mi East 11.5 mph - N/A   Mostly Cloudy
11:15 AM 29.3 °F 20.8 °F 10.9 °F 46% 30.06 in 10.0 mi ESE 9.2 mph - N/A   Scattered Clouds
11:34 AM 29.5 °F 20.4 °F 12.9 °F 50% 30.06 in 10.0 mi East 10.4 mph - N/A   Mostly Cloudy
11:54 AM 30.2 °F 20.8 °F 12.2 °F 47% 30.05 in 10.0 mi ESE 11.5 mph - N/A   Overcast
12:14 PM 31.3 °F 23.9 °F 12.0 °F 45% 30.04 in 10.0 mi East 8.1 mph - N/A   Overcast
12:34 PM 32.0 °F 23.6 °F 12.6 °F 45% 30.03 in 10.0 mi East 10.4 mph - N/A   Overcast
12:55 PM 32.0 °F 23.0 °F 8.8 °F 38% 30.02 in 10.0 mi SE 11.5 mph - N/A   Scattered Clouds
1:14 PM 32.9 °F 24.1 °F 9.5 °F 38% 30.02 in 10.0 mi ESE 11.5 mph 17.3 mph N/A   Scattered Clouds
1:55 PM 32.2 °F 23.2 °F 9.3 °F 39% 30.00 in 10.0 mi ESE 11.5 mph 16.1 mph N/A   Scattered Clouds
2:14 PM 32.0 °F 24.2 °F 8.2 °F 37% 29.99 in 10.0 mi East 9.2 mph 18.4 mph N/A   Clear
2:34 PM 32.5 °F 25.5 °F 9.9 °F 39% 29.99 in 10.0 mi ESE 8.1 mph - N/A   Clear
2:55 PM 32.4 °F 25.3 °F 9.9 °F 39% 29.99 in 10.0 mi SE 8.1 mph - N/A   Clear
3:14 PM 32.4 °F 24.0 °F 10.4 °F 40% 29.99 in 10.0 mi ESE 10.4 mph 16.1 mph N/A   Clear
3:55 PM 32.0 °F 24.2 °F 10.8 °F 41% 29.98 in 10.0 mi ESE 9.2 mph - N/A   Clear
4:14 PM 32.0 °F 23.6 °F 9.5 °F 39% 29.98 in 10.0 mi ESE 10.4 mph - N/A   Clear
4:34 PM 31.6 °F 25.1 °F 10.4 °F 41% 29.98 in 10.0 mi East 6.9 mph - N/A   Clear
4:55 PM 31.1 °F 24.5 °F 10.4 °F 42% 29.98 in 10.0 mi East 6.9 mph - N/A   Clear
5:14 PM 30.0 °F 23.2 °F 13.5 °F 50% 29.97 in 10.0 mi East 6.9 mph - N/A   Scattered Clouds
5:34 PM 29.5 °F 22.5 °F 13.6 °F 52% 29.98 in 10.0 mi East 6.9 mph - N/A   Overcast
5:55 PM 28.9 °F 21.9 °F 13.5 °F 52% 29.98 in 10.0 mi East 6.9 mph - N/A   Mostly Cloudy
6:14 PM 28.4 °F 21.2 °F 13.6 °F 54% 29.98 in 10.0 mi East 6.9 mph - N/A   Mostly Cloudy
6:35 PM 28.2 °F 19.5 °F 13.1 °F 53% 29.99 in 10.0 mi East 9.2 mph - N/A   Overcast
6:54 PM 28.8 °F 20.9 °F 12.6 °F 51% 29.99 in 10.0 mi East 8.1 mph - N/A   Overcast
7:14 PM 28.2 °F 20.2 °F 13.6 °F 54% 29.99 in 10.0 mi East 8.1 mph - N/A   Overcast
7:35 PM 28.0 °F 20.8 °F 13.8 °F 55% 29.98 in 10.0 mi East 6.9 mph - N/A   Overcast
7:54 PM 27.5 °F 20.2 °F 14.9 °F 59% 29.99 in 10.0 mi East 6.9 mph - N/A   Overcast
8:14 PM 27.9 °F 20.6 °F 14.5 °F 57% 29.99 in 10.0 mi East 6.9 mph - N/A   Overcast
8:35 PM 27.9 °F 20.6 °F 14.7 °F 58% 29.99 in 10.0 mi East 6.9 mph - N/A   Overcast
8:54 PM 27.9 °F 21.5 °F 14.9 °F 58% 29.99 in 10.0 mi East 5.8 mph - N/A   Overcast
9:14 PM 27.5 °F 20.2 °F 15.1 °F 60% 29.98 in 10.0 mi East 6.9 mph - N/A   Overcast
9:35 PM 27.3 °F 19.1 °F 14.9 °F 60% 29.97 in 10.0 mi East 8.1 mph - N/A   Overcast
9:54 PM 27.3 °F 19.1 °F 14.2 °F 58% 29.96 in 10.0 mi East 8.1 mph - N/A   Overcast
10:15 PM 27.1 °F 18.9 °F 14.0 °F 58% 29.96 in 10.0 mi East 8.1 mph - N/A   Overcast
10:35 PM 27.1 °F 19.7 °F 13.6 °F 57% 29.96 in 10.0 mi East 6.9 mph - N/A   Overcast
10:54 PM 27.3 °F 19.9 °F 12.9 °F 55% 29.97 in 10.0 mi East 6.9 mph - N/A   Overcast
11:15 PM 27.3 °F 19.1 °F 13.8 °F 57% 29.97 in 10.0 mi East 8.1 mph - N/A   Overcast
11:35 PM 27.5 °F 20.2 °F 12.9 °F 54% 29.98 in 10.0 mi ESE 6.9 mph - N/A   Overcast
11:54 PM 27.7 °F 20.4 °F 13.1 °F 54% 29.98 in 10.0 mi ESE 6.9 mph - N/A   Overcast